| time (UTC) | temp F | wind direction | speed MPH | gust MPH | rain 1hr in | rain 24hr in | rain mn in | humidity % | barometer mb |
| 20260902110104 | 88 | 116 | 1.0 | 3.0 | 0.00 | 0.00 | 0.00 | 34 | 1024.8 |
| 20260902105104 | 86 | 292 | 3.0 | 10.0 | 0.00 | 0.00 | 0.00 | 36 | 1024.9 |
| 20260902104104 | 87 | 118 | 1.0 | 4.0 | 0.00 | 0.00 | 0.00 | 35 | 1025.0 |
| 20260902103104 | 86 | 350 | 3.0 | 6.0 | 0.00 | 0.00 | 0.00 | 36 | 1025.1 |
| 20260902102105 | 87 | 86 | 2.0 | 6.0 | 0.00 | 0.00 | 0.00 | 35 | 1025.1 |
| 20260902101125 | 87 | 335 | 2.0 | 7.0 | 0.00 | 0.00 | 0.00 | 35 | 1025.0 |
| 20260902100104 | 87 | 104 | 0.0 | 2.0 | 0.00 | 0.00 | 0.00 | 35 | 1025.2 |
| 20260902095104 | 86 | 122 | 1.0 | 2.0 | 0.00 | 0.00 | 0.00 | 35 | 1025.2 |
| 20260902094104 | 85 | 144 | 0.0 | 1.0 | 0.00 | 0.00 | 0.00 | 36 | 1025.3 |
| 20260902093104 | 85 | 144 | 0.0 | 1.0 | 0.00 | 0.00 | 0.00 | 36 | 1025.1 |
| 20260902092125 | 86 | 0.0 | 0.0 | 0.00 | 0.00 | 0.00 | 38 | 1025.0 | |
| 20260902091105 | 87 | 111 | 1.0 | 3.0 | 0.00 | 0.00 | 0.00 | 37 | 1025.1 |
| 20260902090104 | 86 | 0.0 | 0.0 | 0.00 | 0.00 | 0.00 | 38 | 1025.1 | |
| 20260902085104 | 85 | 166 | 0.0 | 1.0 | 0.00 | 0.00 | 0.00 | 41 | 1025.0 |
| 20260902084124 | 85 | 123 | 0.0 | 2.0 | 0.00 | 0.00 | 0.00 | 40 | 1025.0 |
| 20260902083103 | 85 | 133 | 0.0 | 3.0 | 0.00 | 0.00 | 0.00 | 40 | 1025.0 |
| 20260902082125 | 84 | 117 | 0.0 | 1.0 | 0.00 | 0.00 | 0.00 | 39 | 1024.9 |
| 20260902081126 | 83 | 128 | 0.0 | 1.0 | 0.00 | 0.00 | 0.00 | 40 | 1024.9 |
| 20260902080105 | 83 | 127 | 0.0 | 2.0 | 0.00 | 0.00 | 0.00 | 40 | 1024.8 |
| 20260902075105 | 82 | 131 | 0.0 | 1.0 | 0.00 | 0.00 | 0.00 | 42 | 1024.7 |
| 20260902074124 | 79 | 0.0 | 0.0 | 0.00 | 0.00 | 0.00 | 47 | 1024.7 | |
| 20260902073104 | 79 | 0.0 | 0.0 | 0.00 | 0.00 | 0.00 | 52 | 1024.6 | |
| 20260902072105 | 79 | 0.0 | 0.0 | 0.00 | 0.00 | 0.00 | 47 | 1024.4 | |
| 20260902071124 | 78 | 0.0 | 0.0 | 0.00 | 0.00 | 0.00 | 42 | 1024.4 | |
| 20260902070104 | 79 | 0.0 | 0.0 | 0.00 | 0.00 | 0.00 | 44 | 1024.4 | |
| 20260902065125 | 78 | 0.0 | 0.0 | 0.00 | 0.00 | 0.00 | 40 | 1024.3 | |
| 20260902064125 | 78 | 0.0 | 0.0 | 0.00 | 0.00 | 0.00 | 44 | 1024.2 | |
| 20260902063105 | 78 | 0.0 | 0.0 | 0.00 | 0.00 | 0.00 | 45 | 1024.2 | |
| 20260902062104 | 79 | 0.0 | 0.0 | 0.00 | 0.00 | 0.00 | 41 | 1023.9 | |
| 20260902061104 | 79 | 144 | 2.0 | 3.0 | 0.00 | 0.00 | 0.00 | 37 | 1024.0 |
| 20260902060104 | 77 | 0.0 | 1.0 | 0.00 | 0.00 | 0.00 | 42 | 1023.9 | |
| 20260902055147 | 77 | 150 | 2.0 | 3.0 | 0.00 | 0.00 | 0.00 | 43 | 1023.9 |
| 20260902054104 | 77 | 147 | 0.0 | 2.0 | 0.00 | 0.00 | 0.00 | 44 | 1024.0 |
| 20260902053104 | 77 | 166 | 0.0 | 2.0 | 0.00 | 0.00 | 0.00 | 42 | 1024.0 |
| 20260902052124 | 77 | 153 | 2.0 | 3.0 | 0.00 | 0.00 | 0.00 | 40 | 1023.9 |
| 20260902051104 | 77 | 146 | 3.0 | 4.0 | 0.00 | 0.00 | 0.00 | 41 | 1023.9 |
| 20260902050104 | 77 | 156 | 3.0 | 4.0 | 0.00 | 0.00 | 0.00 | 41 | 1023.9 |
| 20260902045104 | 75 | 152 | 3.0 | 4.0 | 0.00 | 0.00 | 0.00 | 44 | 1023.8 |
| 20260902044105 | 73 | 145 | 0.0 | 2.0 | 0.00 | 0.00 | 0.00 | 53 | 1024.1 |
| 20260902043105 | 73 | 0.0 | 0.0 | 0.00 | 0.00 | 0.00 | 53 | 1024.0 | |
| 20260902042104 | 75 | 0.0 | 0.0 | 0.00 | 0.00 | 0.00 | 45 | 1023.9 | |
| 20260902041104 | 75 | 0.0 | 0.0 | 0.00 | 0.00 | 0.00 | 45 | 1023.8 | |
| 20260902040104 | 75 | 0.0 | 0.0 | 0.00 | 0.00 | 0.00 | 44 | 1023.8 | |
| 20260902035124 | 76 | 0.0 | 0.0 | 0.00 | 0.00 | 0.00 | 46 | 1023.5 | |
| 20260902034105 | 75 | 0.0 | 0.0 | 0.00 | 0.00 | 0.00 | 48 | 1023.7 | |
| 20260902033104 | 74 | 0.0 | 0.0 | 0.00 | 0.00 | 0.00 | 53 | 1023.6 | |
| 20260902032124 | 74 | 0.0 | 0.0 | 0.00 | 0.00 | 0.00 | 60 | 1023.6 | |
| 20260902031104 | 73 | 0.0 | 1.0 | 0.00 | 0.00 | 0.00 | 61 | 1023.8 | |
| 20260902030104 | 74 | 0.0 | 0.0 | 0.00 | 0.00 | 0.00 | 59 | 1023.6 | |
| 20260902025104 | 75 | 170 | 1.0 | 2.0 | 0.00 | 0.00 | 0.00 | 53 | 1023.8 |
| 20260902024104 | 76 | 0.0 | 0.0 | 0.00 | 0.00 | 0.00 | 45 | 1023.7 | |
| 20260902023104 | 76 | 0.0 | 0.0 | 0.00 | 0.00 | 0.00 | 41 | 1023.5 | |
| 20260902022105 | 76 | 0.0 | 0.0 | 0.00 | 0.00 | 0.00 | 43 | 1023.5 | |
| 20260902021104 | 75 | 142 | 0.0 | 2.0 | 0.00 | 0.00 | 0.00 | 46 | 1023.5 |
| 20260902020104 | 75 | 0.0 | 1.0 | 0.00 | 0.00 | 0.00 | 54 | 1023.4 | |
| 20260902015144 | 74 | 0.0 | 0.0 | 0.00 | 0.00 | 0.00 | 48 | 1023.5 | |
| 20260902014104 | 74 | 0.0 | 0.0 | 0.00 | 0.00 | 0.00 | 54 | 1023.4 | |
| 20260902013104 | 74 | 0.0 | 0.0 | 0.00 | 0.00 | 0.00 | 52 | 1023.7 | |
| 20260902012104 | 75 | 130 | 0.0 | 2.0 | 0.00 | 0.00 | 0.00 | 50 | 1023.6 |
| 20260902011126 | 75 | 0.0 | 0.0 | 0.00 | 0.00 | 0.00 | 50 | 1023.6 | |
| 20260902005104 | 75 | 289 | 1.0 | 4.0 | 0.00 | 0.00 | 0.00 | 55 | 1023.9 |
| 20260902004104 | 75 | 306 | 1.0 | 3.0 | 0.00 | 0.00 | 0.00 | 55 | 1023.9 |
| 20260902003106 | 74 | 0.0 | 0.0 | 0.00 | 0.00 | 0.00 | 54 | 1023.8 | |
| 20260902002105 | 75 | 0.0 | 0.0 | 0.00 | 0.00 | 0.00 | 54 | 1023.7 | |
| 20260902001103 | 74 | 0.0 | 0.0 | 0.00 | 0.00 | 0.00 | 55 | 1023.9 | |
| 20260901235103 | 75 | 0.0 | 0.0 | 0.00 | 0.00 | 0.00 | 54 | 1024.1 | |
| 20260901234106 | 76 | 0.0 | 0.0 | 0.00 | 0.00 | 0.00 | 53 | 1024.0 | |
| 20260901233103 | 77 | 0.0 | 0.0 | 0.00 | 0.00 | 0.00 | 49 | 1024.1 | |
| 20260901232125 | 77 | 0.0 | 0.0 | 0.00 | 0.00 | 0.00 | 47 | 1024.0 | |
| 20260901231103 | 77 | 0.0 | 0.0 | 0.00 | 0.00 | 0.00 | 44 | 1024.1 | |
| 20260901225123 | 76 | 0.0 | 0.0 | 0.00 | 0.00 | 0.00 | 54 | 1023.8 | |
| 20260901224104 | 76 | 0.0 | 0.0 | 0.00 | 0.00 | 0.00 | 60 | 1024.0 | |
| 20260901223103 | 76 | 0.0 | 0.0 | 0.00 | 0.00 | 0.00 | 60 | 1023.9 | |
| 20260901222103 | 77 | 0.0 | 0.0 | 0.00 | 0.00 | 0.00 | 56 | 1024.2 | |
| 20260901221124 | 77 | 0.0 | 0.0 | 0.00 | 0.00 | 0.00 | 53 | 1024.0 | |
| 20260901220104 | 78 | 0.0 | 0.0 | 0.00 | 0.00 | 0.00 | 51 | 1024.1 | |
| 20260901215103 | 78 | 276 | 0.0 | 2.0 | 0.00 | 0.00 | 0.00 | 51 | 1024.1 |
| 20260901214105 | 79 | 302 | 0.0 | 2.0 | 0.00 | 0.00 | 0.00 | 51 | 1024.1 |
| 20260901213124 | 79 | 273 | 2.0 | 3.0 | 0.00 | 0.00 | 0.00 | 51 | 1024.0 |
| 20260901212103 | 79 | 240 | 2.0 | 3.0 | 0.00 | 0.00 | 0.00 | 53 | 1024.1 |
| 20260901211104 | 78 | 310 | 3.0 | 4.0 | 0.00 | 0.00 | 0.00 | 55 | 1024.0 |
| 20260901210105 | 77 | 292 | 2.0 | 4.0 | 0.00 | 0.00 | 0.00 | 60 | 1024.1 |
| 20260901205104 | 77 | 148 | 2.0 | 3.0 | 0.00 | 0.00 | 0.00 | 62 | 1024.0 |
| 20260901204103 | 77 | 247 | 2.0 | 3.0 | 0.00 | 0.00 | 0.00 | 61 | 1024.2 |
| 20260901203123 | 77 | 289 | 2.0 | 3.0 | 0.00 | 0.00 | 0.00 | 61 | 1024.0 |
| 20260901202103 | 77 | 300 | 3.0 | 4.0 | 0.00 | 0.00 | 0.00 | 61 | 1024.1 |
| 20260901201103 | 77 | 265 | 3.0 | 4.0 | 0.00 | 0.00 | 0.00 | 60 | 1024.1 |
| 20260901200123 | 78 | 284 | 2.0 | 3.0 | 0.00 | 0.00 | 0.00 | 59 | 1024.1 |
| 20260901195103 | 78 | 315 | 3.0 | 6.0 | 0.00 | 0.00 | 0.00 | 58 | 1023.9 |
| 20260901194104 | 78 | 299 | 4.0 | 7.0 | 0.00 | 0.00 | 0.00 | 58 | 1023.9 |
| 20260901193103 | 78 | 286 | 3.0 | 6.0 | 0.00 | 0.00 | 0.00 | 58 | 1023.8 |
| 20260901192103 | 78 | 316 | 3.0 | 4.0 | 0.00 | 0.00 | 0.00 | 58 | 1023.8 |
| 20260901191103 | 78 | 278 | 4.0 | 7.0 | 0.00 | 0.00 | 0.00 | 57 | 1023.9 |
| 20260901185103 | 79 | 300 | 3.0 | 6.0 | 0.00 | 0.00 | 0.00 | 56 | 1023.7 |
| 20260901184103 | 79 | 310 | 4.0 | 6.0 | 0.00 | 0.00 | 0.00 | 55 | 1023.7 |
| 20260901183103 | 79 | 288 | 4.0 | 6.0 | 0.00 | 0.00 | 0.00 | 55 | 1023.6 |
| 20260901182103 | 80 | 293 | 4.0 | 8.0 | 0.00 | 0.00 | 0.00 | 54 | 1023.4 |
| 20260901181123 | 80 | 312 | 3.0 | 6.0 | 0.00 | 0.00 | 0.00 | 53 | 1023.6 |
| 20260901180103 | 80 | 290 | 3.0 | 6.0 | 0.00 | 0.00 | 0.00 | 53 | 1023.5 |
| 20260901175123 | 81 | 302 | 3.0 | 6.0 | 0.00 | 0.00 | 0.00 | 52 | 1023.4 |
| 20260901174103 | 81 | 304 | 4.0 | 6.0 | 0.00 | 0.00 | 0.00 | 51 | 1023.4 |
| 20260901173103 | 81 | 290 | 3.0 | 4.0 | 0.00 | 0.00 | 0.00 | 51 | 1023.4 |
| 20260901172104 | 82 | 290 | 5.0 | 8.0 | 0.00 | 0.00 | 0.00 | 50 | 1023.4 |
| 20260901171104 | 82 | 306 | 6.0 | 11.0 | 0.00 | 0.00 | 0.00 | 49 | 1023.4 |
| 20260901170104 | 83 | 292 | 6.0 | 9.0 | 0.00 | 0.00 | 0.00 | 48 | 1023.5 |
| 20260901165104 | 83 | 293 | 4.0 | 9.0 | 0.00 | 0.00 | 0.00 | 47 | 1023.6 |
| 20260901164103 | 84 | 319 | 6.0 | 10.0 | 0.00 | 0.00 | 0.00 | 47 | 1023.4 |
| 20260901163123 | 84 | 311 | 5.0 | 11.0 | 0.00 | 0.00 | 0.00 | 46 | 1023.3 |
| 20260901162103 | 84 | 272 | 6.0 | 11.0 | 0.00 | 0.00 | 0.00 | 47 | 1023.4 |
| 20260901161103 | 85 | 288 | 7.0 | 11.0 | 0.00 | 0.00 | 0.00 | 47 | 1023.4 |
| 20260901155123 | 86 | 333 | 4.0 | 11.0 | 0.00 | 0.00 | 0.00 | 46 | 1023.2 |
| 20260901154124 | 87 | 342 | 5.0 | 9.0 | 0.00 | 0.00 | 0.00 | 45 | 1023.1 |
| 20260901153103 | 87 | 209 | 3.0 | 9.0 | 0.00 | 0.00 | 0.00 | 44 | 1023.2 |
| 20260901152103 | 87 | 295 | 5.0 | 9.0 | 0.00 | 0.00 | 0.00 | 44 | 1023.1 |
| 20260901151103 | 87 | 4 | 5.0 | 13.0 | 0.00 | 0.00 | 0.00 | 43 | 1023.1 |
| 20260901150103 | 88 | 317 | 4.0 | 13.0 | 0.00 | 0.00 | 0.00 | 42 | 1023.1 |
| 20260901145103 | 88 | 31 | 4.0 | 9.0 | 0.00 | 0.00 | 0.00 | 42 | 1023.1 |
| 20260901144103 | 89 | 14 | 5.0 | 13.0 | 0.00 | 0.00 | 0.00 | 39 | 1022.9 |
| 20260901143103 | 89 | 27 | 5.0 | 15.0 | 0.00 | 0.00 | 0.00 | 34 | 1022.8 |
| 20260901142103 | 89 | 335 | 6.0 | 9.0 | 0.00 | 0.00 | 0.00 | 33 | 1022.9 |
| 20260901141144 | 89 | 268 | 4.0 | 11.0 | 0.00 | 0.00 | 0.00 | 33 | 1022.9 |
| 20260901140123 | 89 | 150 | 2.0 | 7.0 | 0.00 | 0.00 | 0.00 | 34 | 1022.9 |
| 20260901135143 | 89 | 216 | 6.0 | 13.0 | 0.00 | 0.00 | 0.00 | 33 | 1022.9 |
| 20260901133103 | 89 | 283 | 5.0 | 9.0 | 0.00 | 0.00 | 0.00 | 34 | 1023.1 |
| 20260901132103 | 89 | 239 | 3.0 | 10.0 | 0.00 | 0.00 | 0.00 | 33 | 1023.1 |
| 20260901131103 | 89 | 28 | 2.0 | 4.0 | 0.00 | 0.00 | 0.00 | 32 | 1023.1 |
| 20260901125123 | 88 | 324 | 6.0 | 14.0 | 0.00 | 0.00 | 0.00 | 31 | 1023.1 |
| 20260901124103 | 89 | 10 | 5.0 | 7.0 | 0.00 | 0.00 | 0.00 | 32 | 1023.3 |
| 20260901123103 | 89 | 334 | 4.0 | 10.0 | 0.00 | 0.00 | 0.00 | 30 | 1023.3 |
| 20260901122104 | 88 | 278 | 3.0 | 8.0 | 0.00 | 0.00 | 0.00 | 31 | 1023.4 |
| 20260901121124 | 89 | 312 | 2.0 | 13.0 | 0.00 | 0.00 | 0.00 | 29 | 1023.4 |
| 20260901120103 | 88 | 314 | 4.0 | 9.0 | 0.00 | 0.00 | 0.00 | 29 | 1023.6 |
| 20260901115103 | 88 | 339 | 7.0 | 15.0 | 0.00 | 0.00 | 0.00 | 31 | 1023.5 |
| 20260901114104 | 88 | 343 | 1.0 | 6.0 | 0.00 | 0.00 | 0.00 | 38 | 1023.4 |
| 20260901113103 | 87 | 322 | 5.0 | 10.0 | 0.00 | 0.00 | 0.00 | 36 | 1023.5 |
| 20260901112104 | 88 | 328 | 2.0 | 9.0 | 0.00 | 0.00 | 0.00 | 37 | 1023.4 |
| 20260901111104 | 88 | 308 | 3.0 | 7.0 | 0.00 | 0.00 | 0.00 | 39 | 1023.5 |